Webcams

EDPO Webcam Blick Richtung Osten (local time)

Webcam

Info zum Bild:

  • Blick zum Kloster Mariahilf, Entfernung ca. 3km
  • Blick zur Kirche St. Johannes, Entfernung ca. 1km
  • Blick zu den beiden Windrädern, Entfernung ca. 6km

EDPO Webcam Blick Richtung Westen (local time)

Webcam

Info zum Bild:

  • Blick zum Tyrolsberg, Entfernung ca. 3,5km

Dillberg Webcam Blick Richtung Westen zum Sender (local time)

Webcam

Info zum Bild:

  • Blick zum Dillberg Sender, Entfernung ca. 0,6 km
  • Höhe 2.716 ft über MSL Hindernis Höhe Sender (laut ICAO Karte)
  • Höhe 1.322 ft über EDPO Höhe Sender
  • Nord Platzrundenhöhe EDPO 2.200 ft

Dillberg Webcam Blick Richtung Osten zu EDPO (local time)

Webcam

Info zum Bild:

  • Blick vom Dillberg Richtung Neumarkt, Höhe 555ft über EDPO

Nürnberger Fernsehturm (Rundum CAM)


METAR Informationen der nächstgelegenen Flughäfen


EDDN / Flughafen Nürnberg „Albrecht Dürer“

EDDN 220650Z AUTO 18009KT 9999 -RA BKN040 07/06 Q1002 NOSIG

ETIC / Fliegerhorst Grafenwöhr AAF

ETIC 220655Z AUTO 17005KT 9999 -RA BKN030 OVC035 07/06 A2958 RMK AO2 RAE29DZB29E37RAB37 SLP024 P0003 T00710057 $

ETIH / Fliegerhorst Hohenfels AAF

ETIH 220705Z AUTO 21007KT 9999 -RA BKN017 OVC038 08/06 A2963 RMK AO2 CIG 017V040 SLP041 $